Location: Unspecified
(0.0000°N, 0.0000°E)
Time: 22:41:30
(UTC+00:00)

Altair 2 - Pass Details

Date: 17 October 2024
Orbit: 523 x 2152 km, 81.3° (Epoch: 11 November)

Event Time Altitude Azimuth Distance (km) Brightness Sun altitude
Rises 02:23:10 0° 26° (NNE) 5,656 11.6 -49.6°
Reaches altitude 10° 02:28:05 10° 41° (NE) 4,644 11.2 -48.4°
Maximum altitude 02:36:09 21° 83° (E) 3,673 10.8 -46.5°
Drops below altitude 10° 02:43:24 10° 125° (SE) 4,158 11.3 -44.7°
Sets 02:47:22 0° 140° (SE) 4,914 11.7 -43.7°
